Date,TemperatureHighF,TemperatureAvgF,TemperatureLowF,DewpointHighF,DewpointAvgF,DewpointLowF,HumidityHigh,HumidityAvg,HumidityLow,PressureMaxIn,PressureMinIn,WindSpeedMaxMPH,WindSpeedAvgMPH,GustSpeedMaxMPH,PrecipitationSumIn
2013-1-1,38,31,20,27,19,6,75,60,47,29.85,29.66,18,1,21,0.00
2013-1-2,30,20,12,15,8,1,75,60,47,30.03,29.83,17,0,18,0.00
2013-1-3,24,15,4,12,0,-7,69,52,28,30.07,29.94,8,0,10,0.00
2013-1-4,38,28,19,24,19,10,81,68,52,29.94,29.75,18,1,18,0.03
2013-1-5,41,32,24,24,20,18,80,64,43,30.20,29.80,15,0,16,0.04
2013-1-6,42,32,24,30,26,19,95,78,58,30.16,29.87,17,0,17,0.06
2013-1-7,39,32,26,29,24,18,94,76,44,30.33,29.89,10,0,10,0.00
2013-1-8,46,36,27,30,28,22,96,74,50,30.31,30.20,19,1,19,0.00
2013-1-9,32,30,28,29,28,26,92,89,85,30.31,30.28,0,0,1,0.00
2013-1-14,60,50,40,54,39,29,100,67,44,30.17,29.91,12,0,12,0.00
2013-1-15,41,36,32,33,29,26,91,75,58,30.24,30.14,5,0,5,0.02
2013-1-16,33,32,30,32,31,26,100,95,77,30.17,29.73,3,0,3,0.01
2013-1-17,40,34,30,34,29,18,100,82,58,30.01,29.77,17,0,17,0.23
2013-1-18,30,22,18,19,3,-6,63,44,28,30.39,29.97,16,0,18,0.00
2013-1-19,46,36,19,33,24,6,79,62,45,30.34,29.82,21,1,21,0.13
2013-1-20,53,41,28,34,26,9,78,57,32,29.85,29.49,27,2,28,0.01
2013-1-21,28,25,20,21,11,4,93,58,39,30.02,29.71,14,0,14,0.00
2013-1-22,23,19,12,21,7,-6,94,61,31,30.01,29.68,15,1,15,0.00
2013-1-23,15,10,5,2,-6,-11,67,48,33,30.08,30.00,19,1,24,0.00
2013-1-24,19,10,2,-7,-9,-12,61,42,25,30.17,30.00,22,1,22,0.00
2013-1-25,23,15,7,13,-6,-12,87,40,22,30.24,29.99,11,0,13,0.00
2013-1-26,24,16,8,13,3,-10,90,61,28,30.17,29.93,14,1,14,0.00
2013-1-27,29,20,12,6,1,-3,62,44,27,30.39,30.17,14,1,18,0.00
2013-1-28,31,24,16,28,13,1,97,66,31,30.39,29.93,3,0,6,0.00
2013-1-29,33,30,26,32,29,25,99,97,94,30.12,29.92,1,0,2,0.18
2013-1-30,60,49,32,58,48,32,100,98,90,30.08,29.39,24,2,24,0.19
2013-1-31,59,47,30,58,39,15,99,75,39,29.53,28.91,32,3,32,0.65
2013-2-1,32,28,21,18,10,3,63,47,32,30.02,29.52,18,2,19,0.00
2013-2-2,31,24,16,14,7,2,61,50,35,30.17,29.98,16,0,16,0.00
2013-2-3,28,24,19,22,20,13,93,85,60,29.99,29.66,10,0,10,0.00
2013-2-4,29,23,19,22,12,4,93,63,36,29.89,29.66,18,1,18,0.00
2013-2-5,27,24,20,23,16,9,94,71,60,29.95,29.86,5,0,5,0.00
2013-2-6,38,29,24,28,19,4,96,70,41,30.22,29.85,14,0,14,0.05
2013-2-7,31,24,16,14,6,0,71,48,28,30.45,30.21,7,0,8,0.00
2013-2-8,32,28,18,32,26,14,100,90,65,30.42,29.44,13,0,13,0.04
2013-2-9,22,18,13,21,17,10,95,93,88,30.12,29.42,18,2,18,0.00
2013-2-10,34,21,8,27,16,4,88,82,69,30.33,30.12,7,0,8,0.26
2013-2-11,44,34,20,44,32,13,100,93,70,30.28,29.54,12,0,12,0.22
2013-2-12,43,37,31,41,30,25,100,76,55,29.83,29.55,17,1,17,0.01
2013-2-13,43,34,26,28,24,21,87,70,48,29.81,29.62,6,0,6,0.00
2013-2-14,44,35,27,28,23,19,93,64,37,29.93,29.64,7,0,7,0.00
2013-2-15,50,38,29,36,32,24,98,82,56,29.94,29.84,16,0,16,0.00
2013-2-16,36,33,30,33,29,19,99,87,59,29.88,29.60,9,0,10,0.04
2013-2-17,30,21,16,24,12,0,94,70,37,29.62,29.31,22,4,24,0.00
2013-2-18,30,21,14,5,1,-4,53,41,24,30.10,29.62,25,2,25,0.00
2013-2-19,46,36,21,43,26,0,100,69,38,30.11,29.51,11,0,11,0.45
2013-2-20,41,32,25,40,20,8,100,64,39,29.72,29.46,25,2,25,0.01
2013-2-21,33,27,23,16,14,11,69,57,42,30.12,29.71,18,2,20,0.00
2013-2-22,39,30,22,25,21,16,81,69,48,30.31,30.11,7,0,7,0.00
2013-2-23,38,34,30,32,29,25,99,84,70,30.27,29.82,5,0,5,0.18
2013-2-24,37,34,30,37,34,30,100,100,99,29.83,29.60,7,0,7,0.70
2013-2-25,38,33,29,34,31,29,100,90,70,30.18,29.81,6,0,6,0.16
2013-2-26,45,36,29,34,29,25,99,79,47,30.27,30.07,6,0,6,0.00
2013-2-27,41,39,36,41,38,31,100,98,84,30.08,29.50,14,0,14,1.22
2013-2-28,46,37,32,39,36,31,100,94,73,29.58,29.45,3,0,3,0.00
2013-3-1,42,36,30,36,30,27,100,79,59,29.61,29.46,10,0,10,0.01
2013-3-2,42,37,32,30,27,26,79,68,56,29.61,29.56,3,0,10,0.00
2013-3-3,42,35,31,31,28,24,96,75,57,29.57,29.49,6,0,6,0.00
2013-3-4,40,34,28,29,24,20,91,67,51,29.66,29.51,15,1,17,0.00
2013-3-5,45,36,30,33,27,22,93,71,52,29.98,29.66,11,0,11,0.00
2013-3-6,40,36,33,36,33,29,98,91,70,30.00,29.94,12,1,14,0.16
2013-3-7,35,31,30,33,31,30,100,98,83,29.94,29.89,20,1,20,0.12
2013-3-8,33,30,29,33,30,29,100,100,100,30.06,29.84,7,0,7,0.01
2013-3-9,42,33,26,32,28,23,100,85,60,30.28,30.06,10,0,10,0.71
2013-3-10,46,34,25,33,29,24,99,85,58,30.33,30.24,5,0,6,0.02
2013-3-11,51,41,35,41,37,32,99,86,66,30.26,30.08,11,0,11,0.00
2013-3-12,56,49,41,54,48,40,100,96,81,30.09,29.66,21,1,21,0.69
2013-3-13,51,42,31,50,31,20,100,68,33,29.72,29.63,12,1,14,0.00
2013-3-14,32,27,22,25,14,3,81,58,40,29.77,29.68,17,1,20,0.00
2013-3-15,42,30,20,28,14,3,85,54,22,29.82,29.58,16,1,18,0.00
2013-3-16,41,34,27,28,16,5,85,52,25,29.81,29.62,8,0,8,0.00
2013-3-17,38,30,22,20,12,0,78,49,22,30.26,29.80,12,1,13,0.00
2013-3-18,39,28,18,26,10,-1,90,49,24,30.38,30.09,8,0,8,0.00
2013-3-19,37,32,28,36,32,26,100,98,87,30.15,29.51,13,0,13,0.59
2013-3-20,39,31,25,28,21,16,96,69,43,29.75,29.63,19,1,21,0.23
2013-3-21,36,31,27,29,23,16,95,74,52,29.75,29.53,8,0,8,0.09
2013-3-22,30,30,30,28,21,18,93,70,60,29.55,29.54,10,0,10,0.00
2013-3-24,36,35,34,27,26,24,75,71,62,29.73,29.67,0,0,1,0.00
2013-3-25,44,36,29,34,30,26,90,80,60,29.69,29.42,13,1,13,0.01
2013-3-26,50,39,33,32,26,20,90,62,34,29.71,29.43,11,0,12,0.00
2013-3-27,53,41,28,31,23,19,72,51,29,29.79,29.67,13,0,13,0.00
2013-3-28,48,41,36,35,33,29,95,73,51,29.95,29.78,8,0,8,0.01
2013-3-29,58,45,34,34,31,25,89,60,31,29.97,29.89,12,0,12,0.00
2013-3-30,58,46,35,33,23,13,81,46,19,30.04,29.92,11,0,11,0.00
2013-3-31,60,46,32,44,28,19,98,54,24,30.05,29.56,18,1,18,0.11
2013-4-1,64,46,34,46,38,12,100,75,37,29.75,29.43,22,1,22,0.32
2013-4-2,41,34,28,18,14,7,65,44,27,29.89,29.73,13,1,28,0.00
2013-4-3,45,36,29,17,13,8,56,40,23,30.12,29.88,24,2,24,0.00
2013-4-4,57,41,28,30,17,8,75,43,16,30.23,29.98,13,1,13,0.00
2013-4-5,61,46,37,32,27,19,78,52,20,30.00,29.55,13,1,17,0.00
2013-4-6,48,38,31,26,12,1,73,39,16,30.27,29.81,13,1,17,0.00
2013-4-7,54,41,28,42,31,23,87,68,37,30.27,29.94,21,1,21,0.00
2013-4-8,68,53,42,44,41,34,99,68,30,30.02,29.89,7,0,11,0.00
2013-4-9,74,58,47,53,44,39,98,65,33,30.01,29.78,16,1,19,0.00
2013-4-10,49,48,46,45,43,42,94,84,82,29.90,29.86,3,0,3,0.01
2013-4-12,38,38,37,38,38,36,99,98,96,29.85,29.69,8,0,8,0.43
2013-4-13,54,43,36,41,37,34,99,80,48,29.86,29.65,11,0,11,0.03
2013-4-14,52,44,36,40,33,25,96,67,36,30.15,29.85,16,1,16,0.00
2013-4-15,60,45,30,38,32,27,91,64,33,30.33,30.14,10,0,10,0.00
2013-4-16,63,51,37,50,43,36,98,76,52,30.33,30.01,20,1,20,0.00
2013-4-17,69,58,45,53,40,27,88,56,23,30.26,30.00,13,1,13,0.00
2013-4-18,65,51,38,47,36,25,98,63,29,30.34,30.08,17,1,17,0.00
2013-4-19,73,61,51,64,58,47,100,91,66,30.08,29.60,20,2,21,0.02
2013-4-20,64,54,44,63,43,24,99,69,37,30.15,29.54,19,1,20,0.46
2013-4-21,54,43,31,31,23,17,72,47,24,30.61,30.14,19,1,19,0.00
2013-4-22,54,42,31,36,30,23,96,66,34,30.66,30.50,12,0,12,0.00
2013-4-23,42,40,37,42,39,31,100,94,76,30.51,30.02,11,0,13,0.07
2013-4-24,75,54,41,52,45,41,100,78,34,30.02,29.74,14,1,14,0.01
2013-4-25,66,55,44,52,35,24,95,51,23,30.19,29.77,12,1,12,0.06
2013-4-26,64,50,38,44,36,26,91,59,33,30.35,30.19,10,0,10,0.00
2013-4-27,68,50,35,46,37,32,100,66,30,30.35,30.22,8,0,8,0.00
2013-4-28,71,54,37,44,34,27,95,54,25,30.26,30.16,14,0,14,0.00
2013-4-29,69,56,46,47,37,21,95,57,21,30.21,30.14,14,0,14,0.00
2013-4-30,74,56,41,43,31,17,89,47,15,30.29,30.18,12,0,13,0.00
2013-5-1,72,55,36,45,35,26,91,52,25,30.39,30.29,7,0,7,0.00
2013-5-2,80,58,42,47,42,34,96,62,22,30.41,30.26,13,0,13,0.00
2013-5-3,59,48,40,44,41,38,96,76,57,30.44,30.30,13,0,13,0.00
2013-5-4,60,48,36,45,37,26,99,71,29,30.31,30.22,10,0,11,0.00
2013-5-5,66,48,33,44,39,32,100,74,40,30.25,30.16,7,0,8,0.00
2013-5-6,76,55,40,51,45,38,98,73,35,30.22,30.07,9,0,9,0.00
2013-5-7,79,62,44,58,52,43,100,74,45,30.11,30.02,12,0,13,0.00
2013-5-8,73,63,54,66,59,53,100,88,63,30.11,29.96,11,0,11,0.22
2013-5-9,72,61,58,63,60,58,100,97,64,29.96,29.80,5,0,5,0.82
2013-5-10,82,66,53,61,56,50,100,74,34,29.88,29.82,7,0,7,0.01
2013-5-11,72,62,57,63,59,55,99,91,68,29.85,29.62,14,0,15,0.08
2013-5-12,74,61,49,62,52,33,100,78,41,29.75,29.49,17,0,17,0.06
2013-5-13,60,50,40,36,31,26,79,50,28,29.95,29.75,14,1,14,0.00
2013-5-14,60,49,37,37,32,25,87,55,28,29.98,29.90,18,0,18,0.00
2013-5-15,66,52,38,53,41,30,96,70,28,29.98,29.60,12,1,16,0.03
2013-5-16,83,67,52,52,44,34,99,52,19,29.72,29.56,20,1,20,0.01
2013-5-17,70,59,47,49,43,37,87,58,32,30.15,29.72,14,0,14,0.00
2013-5-18,73,60,45,50,44,34,97,63,27,30.23,30.15,13,0,13,0.00
2013-5-19,73,59,49,55,51,46,99,77,45,30.27,30.14,6,0,10,0.09
2013-5-20,84,69,55,68,62,55,100,82,50,30.15,29.83,13,0,13,0.04
2013-5-21,88,65,51,70,61,51,100,87,50,29.92,29.76,10,0,10,0.00
2013-5-22,73,60,50,67,57,50,100,91,75,29.95,29.80,7,0,7,0.00
2013-5-23,77,66,57,70,64,56,100,94,72,29.85,29.74,18,0,20,0.00
2013-5-24,70,62,49,68,62,49,100,98,85,29.74,29.58,13,0,13,0.00
2013-5-25,52,47,40,51,47,40,100,99,97,29.73,29.63,10,0,13,0.00
2013-5-26,60,49,39,42,40,36,99,74,44,30.04,29.66,20,1,21,0.00
2013-5-27,73,58,41,45,40,32,97,58,23,30.09,30.00,14,0,14,0.00
2013-5-28,77,61,43,56,46,38,98,63,27,30.16,30.08,8,0,8,0.00
2013-5-29,70,60,58,66,59,54,100,97,86,30.11,29.91,8,0,8,0.00
2013-5-30,90,75,63,71,67,63,100,79,47,30.01,29.93,12,0,12,0.00
2013-5-31,95,80,66,72,67,61,99,68,37,30.02,29.87,10,0,10,0.00
2013-6-1,92,79,66,69,66,61,90,66,40,29.91,29.80,16,0,16,0.00
2013-6-2,89,76,65,70,66,64,95,74,46,29.82,29.68,17,1,20,0.00
2013-6-3,77,68,60,69,65,58,100,93,72,29.78,29.69,7,0,7,0.00
2013-6-4,73,61,49,58,47,42,92,61,37,30.02,29.75,12,0,12,0.00
2013-6-5,77,62,47,52,48,42,98,65,31,30.11,30.02,6,0,7,0.00
2013-6-6,77,64,53,56,52,48,94,68,40,30.12,30.02,6,0,6,0.00
2013-6-7,60,56,54,60,56,54,100,99,94,30.04,29.71,6,0,6,0.00
2013-6-8,79,63,54,66,59,54,100,88,61,29.93,29.52,14,0,14,0.00
2013-6-9,80,68,56,61,57,53,100,72,40,30.09,29.92,12,0,12,0.00
2013-6-10,71,62,56,64,59,55,100,90,62,30.12,29.92,3,0,3,0.00
2013-6-11,69,60,56,63,59,56,100,97,79,29.93,29.48,6,0,6,0.00
2013-6-12,59,57,56,59,57,56,100,100,100,29.52,29.48,4,0,5,0.00
2013-6-13,64,56,51,60,55,51,100,97,80,29.73,29.57,5,0,5,0.00
2013-6-14,72,59,52,61,54,49,100,85,57,29.70,29.53,10,0,10,0.00
2013-6-15,80,66,52,56,50,39,99,62,29,29.86,29.69,10,0,10,0.00
2013-6-16,76,66,54,64,56,48,92,71,45,29.87,29.65,10,0,10,0.00
2013-6-17,86,71,60,67,61,56,99,76,37,29.84,29.70,10,0,11,0.00
2013-6-18,82,64,58,68,61,58,100,91,55,29.88,29.78,8,0,8,0.00
2013-6-19,76,64,54,60,55,48,100,76,39,30.07,29.81,7,0,7,0.00
2013-6-20,82,67,52,58,53,43,100,67,31,30.18,30.07,7,0,7,0.00
2013-6-21,84,70,57,68,60,54,93,72,49,30.19,30.11,11,0,12,0.00
2013-6-22,86,72,62,64,59,54,82,67,42,30.15,30.05,10,0,10,0.00
2013-6-23,90,76,63,73,66,57,91,72,49,30.09,29.94,11,0,13,0.00
2013-6-24,94,80,69,74,70,64,98,76,46,29.96,29.80,13,0,13,0.00
2013-6-25,93,79,67,73,69,66,98,75,46,29.85,29.66,12,0,12,0.00
2013-6-26,88,76,69,73,70,67,94,81,54,29.77,29.64,12,0,12,0.00
2013-6-27,71,67,64,68,66,63,99,96,89,29.78,29.67,2,0,2,0.00
2013-6-28,83,72,64,74,69,64,100,93,69,29.67,29.42,18,0,18,0.00
2013-6-29,84,75,70,72,70,68,100,87,60,29.62,29.43,15,0,15,0.00
2013-6-30,84,77,71,74,71,69,98,84,71,29.85,29.70,9,0,9,0.00
2013-7-1,85,74,71,76,73,70,100,94,74,30.01,29.85,14,0,14,0.00
2013-7-2,85,76,72,75,73,71,98,89,69,30.11,30.00,8,0,8,0.00
2013-7-3,89,77,65,75,71,65,99,84,61,30.14,30.06,12,0,12,0.00
2013-7-4,92,81,72,77,74,72,99,80,54,30.13,30.02,11,0,11,0.00
2013-7-5,94,83,74,77,74,71,94,75,49,30.08,29.96,10,0,10,0.00
2013-7-6,92,82,75,76,73,69,93,75,49,30.00,29.89,11,0,11,0.00
2013-7-7,95,80,72,78,73,69,99,83,50,29.94,29.83,8,0,8,0.00
2013-7-8,92,78,67,76,72,66,100,84,51,29.97,29.83,12,0,12,0.00
2013-7-9,78,70,66,72,68,66,100,94,79,30.02,29.95,2,0,2,0.00
2013-7-10,87,76,68,76,72,67,100,89,67,29.99,29.72,7,0,8,0.00
2013-7-11,81,75,70,75,73,70,100,93,78,29.84,29.70,5,0,5,0.00
2013-7-12,73,69,66,70,64,61,100,85,70,30.11,29.83,9,0,10,0.00
2013-7-13,78,70,65,73,69,63,100,95,85,30.22,30.10,2,0,2,0.00
2013-7-14,91,80,72,75,73,70,100,83,53,30.22,30.11,6,0,7,0.00
2013-7-15,94,82,73,76,73,70,98,78,47,30.12,30.01,10,0,10,0.00
2013-7-16,95,81,69,75,70,67,96,73,41,30.08,30.01,6,0,6,0.00
2013-7-17,95,82,71,76,72,67,97,74,44,30.09,29.93,6,0,6,0.00
2013-7-18,96,84,75,79,74,69,90,73,46,29.93,29.85,5,0,5,0.00
2013-7-19,97,85,76,79,76,72,94,75,48,29.86,29.65,14,0,14,0.00
2013-7-20,94,82,74,78,76,72,97,82,49,29.73,29.56,14,0,14,0.00
2013-7-21,86,76,69,73,69,64,97,79,51,29.90,29.72,3,0,4,0.00
2013-7-22,88,75,68,72,69,66,99,84,52,29.92,29.79,5,0,5,0.00
2013-7-23,87,74,70,78,72,69,100,95,69,29.80,29.44,12,0,12,0.00
2013-7-24,85,76,69,74,69,58,100,81,55,29.85,29.50,9,0,10,0.00
2013-7-25,69,61,59,60,56,51,100,86,68,30.00,29.85,6,0,6,0.00
2013-7-26,69,63,59,68,63,59,100,99,91,29.97,29.85,7,0,7,0.00
2013-7-27,84,71,61,69,65,61,100,84,50,29.99,29.92,7,0,7,0.29
2013-7-28,85,73,67,74,69,66,100,89,59,29.93,29.87,4,0,4,0.02
2013-7-29,86,74,66,75,70,66,100,89,65,29.95,29.88,17,0,17,0.14
2013-7-30,83,71,60,68,61,55,97,74,40,30.02,29.95,10,0,10,0.00
2013-7-31,84,71,59,67,61,57,97,74,42,30.06,29.96,5,0,5,0.00
2013-8-1,84,71,63,67,64,61,98,79,50,29.97,29.80,10,0,10,0.01
2013-8-2,84,72,64,69,64,59,100,81,47,29.80,29.72,11,0,11,0.21
2013-8-3,80,70,64,67,64,61,97,81,59,29.79,29.70,12,0,12,0.00
2013-8-4,82,68,58,61,58,54,94,73,41,29.81,29.69,12,0,12,0.00
2013-8-5,78,64,53,57,50,41,98,66,27,29.96,29.81,11,0,12,0.00
2013-8-6,82,66,50,58,53,47,96,67,31,30.07,29.96,5,0,5,0.00
2013-8-7,83,68,57,62,57,48,99,71,33,30.10,30.04,8,0,8,0.00
2013-8-8,81,71,63,72,67,57,100,88,71,30.05,29.94,9,0,10,0.10
2013-8-9,74,72,71,74,72,70,100,98,93,29.96,29.68,12,0,12,2.63
2013-8-10,83,73,60,73,64,55,100,76,41,29.93,29.71,13,0,13,0.01
2013-8-11,80,67,54,63,56,50,98,72,40,30.01,29.92,7,0,10,0.00
2013-8-12,84,71,61,66,61,55,98,74,41,29.95,29.84,8,0,8,0.00
2013-8-13,77,68,64,70,65,61,98,91,69,29.84,29.61,2,0,2,0.01
2013-8-14,65,64,64,64,64,63,98,98,97,29.61,29.59,2,0,2,0.00
2013-8-15,77,65,59,58,56,52,88,74,45,30.04,29.95,3,0,6,0.00
2013-8-16,81,67,54,61,56,52,97,71,39,30.11,30.03,9,0,10,0.00
2013-8-17,84,69,56,64,59,55,98,74,41,30.19,30.11,3,0,3,0.00
2013-8-18,81,68,60,65,61,57,97,80,46,30.19,30.01,5,0,5,0.01
2013-8-19,83,70,59,66,61,55,96,77,42,30.02,29.88,8,0,8,0.00
2013-8-20,87,74,62,67,63,57,98,73,37,30.01,29.90,7,0,7,0.00
2013-8-21,89,75,63,70,65,61,94,74,43,30.06,29.94,7,0,7,0.00
2013-8-22,85,74,66,73,69,64,96,84,63,29.96,29.75,10,0,10,0.00
2013-8-23,81,71,62,70,63,54,98,77,46,30.03,29.74,7,0,12,0.00
2013-8-24,78,64,52,54,50,42,96,65,29,30.26,30.03,5,0,5,0.00
2013-8-25,84,68,54,61,55,48,98,68,31,30.29,30.11,13,0,14,0.00
2013-8-26,79,70,64,68,63,57,96,77,60,30.12,29.80,8,0,10,0.02
2013-8-27,82,72,65,72,68,64,100,91,64,29.81,29.75,3,0,3,0.13
2013-8-28,88,72,62,70,66,61,100,82,45,29.87,29.77,5,0,5,0.00
2013-8-29,66,63,60,65,62,59,100,96,92,29.98,29.86,6,0,6,0.01
2013-8-30,83,69,60,70,64,58,98,86,61,29.95,29.76,7,0,7,0.00
2013-8-31,82,73,67,74,71,67,100,92,74,29.76,29.71,8,0,8,0.01
2013-9-1,78,72,68,76,72,68,100,98,89,29.83,29.72,5,0,5,1.02
2013-9-2,80,74,68,75,72,68,100,95,79,29.79,29.63,8,0,8,0.34
2013-9-3,80,72,63,72,69,60,99,91,66,29.74,29.61,7,0,7,0.00
2013-9-4,80,68,57,62,59,56,99,77,46,29.85,29.73,11,0,11,0.00
2013-9-5,70,63,53,65,59,52,100,88,61,30.06,29.79,6,0,6,0.05
2013-9-6,70,56,44,52,46,39,99,75,35,30.17,30.02,7,0,7,0.00
2013-9-7,79,63,50,59,52,45,92,70,37,30.03,29.79,10,0,10,0.00
2013-9-8,76,65,49,64,54,42,94,71,38,30.01,29.67,12,0,12,0.00
2013-9-9,69,56,42,54,46,41,98,74,41,30.16,30.00,7,0,8,0.00
2013-9-10,76,66,55,70,63,51,98,89,81,30.09,29.96,11,0,11,0.01
2013-9-11,95,79,69,78,73,68,100,83,48,30.00,29.86,8,0,8,0.00
2013-9-12,87,76,69,75,71,68,99,85,60,29.89,29.59,14,0,14,0.18
2013-9-13,78,69,60,71,66,56,100,90,67,29.67,29.49,6,0,6,0.10
2013-9-14,70,60,52,57,54,51,97,82,59,29.98,29.67,8,0,8,0.00
2013-9-15,72,58,47,56,51,47,100,81,49,30.09,29.98,7,0,7,0.00
2013-9-16,67,57,48,59,52,39,98,84,67,30.16,29.94,7,0,7,0.03
2013-9-17,64,50,38,47,40,37,95,72,39,30.34,30.16,2,0,6,0.00
2013-9-18,75,56,42,52,46,40,98,73,35,30.26,30.07,8,0,8,0.00
2013-9-19,80,62,48,59,52,47,96,73,37,30.07,29.96,4,0,4,0.00
2013-9-20,84,64,50,60,55,48,98,76,35,30.01,29.92,3,0,3,0.00
2013-9-21,77,66,57,67,62,57,100,88,62,29.95,29.65,11,0,13,0.01
2013-9-22,71,64,50,68,58,47,100,84,53,29.75,29.54,16,0,16,0.33
2013-9-23,66,53,44,49,44,40,93,74,47,29.93,29.75,12,0,12,0.00
2013-9-24,68,53,42,50,44,39,95,73,40,29.92,29.74,12,0,12,0.00
2013-9-25,69,55,44,54,48,44,98,80,51,29.90,29.80,8,0,8,0.00
2013-9-26,68,57,52,54,50,46,94,80,52,30.04,29.90,5,0,5,0.00
2013-9-27,65,57,49,55,52,48,99,85,62,30.18,30.04,7,0,7,0.00
2013-9-28,73,57,45,58,51,45,100,84,51,30.25,30.18,3,0,3,0.00
2013-9-29,70,54,44,57,49,44,100,86,47,30.19,30.04,4,0,5,0.01
2013-9-30,69,56,48,54,50,45,100,84,44,30.04,29.88,3,0,3,0.00
2013-10-1,78,59,44,58,51,44,100,80,37,29.89,29.77,6,0,6,0.00
2013-10-2,79,66,54,63,58,53,99,79,53,29.87,29.76,12,0,12,0.01
2013-10-3,79,63,52,58,52,43,98,72,31,30.01,29.87,6,0,6,0.00
2013-10-4,62,56,52,60,54,49,100,92,74,30.01,29.96,5,0,5,0.42
2013-10-5,69,61,56,62,59,56,100,93,75,30.05,29.97,2,0,2,0.03
2013-10-6,59,57,56,59,57,56,100,99,97,30.13,30.03,2,0,2,0.25
2013-10-7,76,66,56,72,64,56,100,95,79,30.05,29.76,19,1,19,0.03
2013-10-8,67,57,45,56,48,42,91,73,44,30.29,29.82,11,0,11,0.00
2013-10-9,62,49,40,48,44,40,100,85,54,30.38,30.28,7,0,7,0.00
2013-10-10,63,53,42,56,51,42,100,91,74,30.28,30.08,5,0,5,0.00
2013-10-11,68,57,49,58,52,47,100,86,62,30.09,30.01,5,0,6,0.00
2013-10-12,62,54,47,58,52,47,100,95,81,30.30,30.06,6,0,6,0.00
2013-10-13,62,51,41,51,47,41,100,87,62,30.36,30.28,4,0,8,0.00
2013-10-14,66,48,36,49,42,35,100,82,39,30.34,30.18,4,0,4,0.00
2013-10-15,70,56,46,55,50,46,100,83,52,30.19,30.10,3,0,3,0.00
2013-10-16,61,54,46,57,52,46,100,96,83,30.10,29.84,2,0,2,0.00
2013-10-17,71,61,54,61,58,54,100,92,69,29.84,29.64,7,0,7,0.00
2013-10-18,67,60,48,62,52,44,100,78,48,29.84,29.54,14,1,14,0.00
2013-10-19,66,54,43,49,44,40,92,73,41,29.90,29.67,7,0,7,0.00
2013-10-20,62,53,42,52,41,32,98,68,33,29.95,29.62,12,0,16,0.00
2013-10-21,67,52,40,45,40,36,87,67,37,30.05,29.92,8,0,8,0.00
2013-10-22,69,55,43,53,47,40,100,78,43,29.93,29.62,13,0,13,0.00
2013-10-23,50,44,37,40,37,32,97,77,51,29.72,29.52,2,0,2,0.00
2013-10-24,53,44,38,37,31,24,89,63,32,29.82,29.56,17,0,17,0.00
2013-10-25,50,40,33,34,30,27,87,68,43,30.09,29.82,12,0,12,0.00
2013-10-26,54,43,31,38,31,25,92,66,33,30.09,29.80,25,1,25,0.00
2013-10-27,55,46,38,41,36,30,98,70,42,30.02,29.75,17,0,17,0.01
2013-10-28,58,44,33,36,32,25,91,64,38,30.28,30.00,16,0,16,0.00
2013-10-29,49,37,29,30,26,20,94,68,33,30.36,30.26,5,0,6,0.00
2013-10-30,54,41,30,43,38,28,98,88,63,30.30,30.12,7,0,7,0.00
2013-10-31,62,52,36,61,50,36,100,96,83,30.16,29.68,11,0,11,0.00
2013-11-1,69,63,58,64,59,54,100,86,70,29.72,29.40,20,2,28,0.03
2013-11-2,66,56,49,54,47,38,95,76,38,29.67,29.51,8,0,8,0.00
2013-11-3,52,41,31,47,32,16,95,71,44,30.34,29.63,7,0,7,0.00
2013-11-4,42,32,26,23,19,14,88,61,32,30.63,30.33,8,0,8,0.00
2013-11-5,50,37,24,34,28,21,91,72,44,30.64,30.44,7,0,8,0.00
2013-11-6,60,50,39,52,43,34,97,78,50,30.44,29.97,11,0,11,0.00
2013-11-7,67,54,40,60,51,34,100,93,72,29.97,29.60,14,0,18,0.03
2013-11-8,48,39,30,35,28,22,91,67,44,30.03,29.74,19,1,19,0.00
2013-11-9,44,36,28,31,25,20,86,65,41,30.14,29.96,16,0,16,0.00
2013-11-10,55,45,40,44,38,30,98,75,53,29.97,29.66,17,0,21,0.00
2013-11-11,51,45,38,36,29,24,67,54,35,30.03,29.79,14,1,21,0.00
2013-11-12,49,36,26,40,26,15,98,70,54,30.12,29.81,21,0,21,0.00
2013-11-13,36,28,24,17,14,10,72,57,38,30.20,30.11,12,0,12,0.00
2013-11-14,29,27,26,18,17,15,66,65,62,30.12,30.05,7,0,7,0.00
2013-11-16,59,49,39,39,32,26,95,55,29,30.24,30.17,6,0,7,0.00
2013-11-17,61,49,35,59,47,33,100,91,70,30.23,29.75,6,0,6,0.00
2013-11-18,64,58,48,62,49,32,100,74,44,29.77,29.46,13,1,14,0.00
2013-11-19,48,40,30,33,23,18,64,51,39,30.20,29.58,21,1,21,0.00
2013-11-20,40,31,23,18,14,9,76,52,27,30.55,30.20,9,0,11,0.00
2013-11-21,46,33,21,32,21,16,85,63,34,30.56,30.31,8,0,8,0.00
2013-11-22,49,45,40,49,43,32,100,95,75,30.31,29.74,5,0,5,0.00
2013-11-23,47,40,29,47,27,14,100,62,29,29.82,29.71,16,1,16,0.00
2013-11-24,29,23,20,16,3,-10,68,43,20,30.13,29.73,27,4,27,0.00
2013-11-25,32,24,16,18,3,-9,63,41,19,30.30,30.13,12,0,13,0.00
2013-11-26,42,36,30,41,25,17,100,65,41,30.25,29.93,11,0,11,0.00
2013-11-27,61,51,36,61,51,33,100,99,85,29.95,29.14,25,1,25,1.37
2013-11-28,37,30,23,33,17,6,90,60,36,30.37,29.38,19,1,20,0.01
2013-11-29,34,27,20,16,12,1,72,54,35,30.67,30.37,8,0,8,0.00
2013-11-30,34,24,14,24,15,8,83,68,45,30.72,30.36,6,0,6,0.00
2013-12-1,44,35,30,44,34,24,100,95,77,30.37,29.93,2,0,2,0.28
2013-12-2,39,37,35,39,37,35,100,100,100,29.93,29.83,2,0,2,0.00
2013-12-3,47,37,31,39,35,31,100,92,63,29.87,29.77,5,0,5,0.00
2013-12-4,44,34,28,33,30,28,100,87,58,30.12,29.87,4,0,4,0.01
2013-12-5,54,44,31,54,43,30,100,95,81,30.12,29.84,8,0,8,0.00
2013-12-6,56,49,35,56,47,35,100,95,79,30.05,29.78,8,0,8,0.39
2013-12-7,39,33,26,35,29,21,100,87,61,30.39,29.99,3,0,14,0.13
2013-12-8,30,27,21,22,18,14,84,67,52,30.53,30.38,2,0,2,0.00
2013-12-9,38,32,26,38,32,16,100,97,60,30.42,29.81,4,0,5,0.24
2013-12-10,33,30,23,33,30,20,100,98,87,29.94,29.72,7,0,7,0.03
2013-12-11,28,24,21,22,19,17,92,81,68,30.16,29.93,13,0,13,0.00
2013-12-12,24,22,21,18,17,16,83,81,75,30.10,30.06,2,0,2,0.00
2013-12-13,29,23,19,18,15,11,86,73,52,30.29,29.99,7,0,11,0.00
2013-12-14,28,15,11,27,7,-6,98,69,41,30.52,30.03,7,0,7,0.00
2013-12-15,37,28,23,37,27,21,100,95,84,30.05,29.31,12,1,12,0.22
2013-12-16,27,23,15,22,13,5,88,65,42,30.14,29.69,16,0,18,0.00
2013-12-17,19,13,4,17,10,0,94,87,72,30.20,29.86,7,0,7,0.00
2013-12-18,33,24,16,22,19,13,94,81,57,30.03,29.79,13,0,13,0.01
2013-12-19,43,33,24,27,24,19,82,68,50,30.05,29.88,14,0,14,0.14
2013-12-20,51,41,32,38,33,26,88,74,57,30.05,29.85,10,0,10,0.43
2013-12-21,58,48,42,49,45,36,99,87,72,29.91,29.80,9,0,9,0.01
2013-12-22,65,53,37,61,51,37,100,93,76,29.93,29.69,17,1,17,0.01
2013-12-23,37,35,33,37,35,33,100,100,100,30.01,29.89,7,0,7,0.54
2013-12-24,38,32,26,38,25,13,100,76,51,30.13,29.96,10,0,10,0.01
2013-12-25,26,19,15,13,5,0,72,54,39,30.47,30.13,14,1,14,0.00
2013-12-26,35,26,16,33,23,8,97,86,70,30.43,30.00,5,0,5,0.00
2013-12-27,35,28,23,22,20,18,90,73,52,30.21,30.13,12,0,12,0.02
2013-12-28,46,35,25,29,25,21,86,67,44,30.16,29.93,11,0,14,0.00
2013-12-29,42,38,34,42,34,26,100,86,67,29.97,29.30,11,0,11,0.98
2013-12-30,39,32,20,36,24,10,100,77,45,30.07,29.43,14,0,16,0.01
2013-12-31,26,19,14,15,7,-1,76,60,44,30.12,29.95,8,0,8,0.00
2014-1-1,27,21,15,13,8,4,76,58,41,30.32,30.12,12,0,14,0.00
2014-1-2,21,14,2,17,12,-2,91,88,61,30.29,29.73,12,0,12,0.00